Weather History for Graham, TX

Change the Weather History Date:

Monday, May 27, 2013

  Actual Average (KMWL) Record (KMWL)
Temperature  
Mean Temperature 78 °F -  
Max Temperature 86 °F 85 °F 100 °F (2011)
Min Temperature 70 °F 63 °F 57 °F (2003)
Cooling Degree Days 13    
Growing Degree Days 28 (Base 50)    
Moisture  
Dew Point 67 °F    
Average Humidity 68    
Maximum Humidity 84    
Minimum Humidity 51    
Precipitation  
Precipitation 0.00 in - - ()
Sea Level Pressure  
Sea Level Pressure 29.85 in    
Wind  
Wind Speed 11 mph (SSE)    
Max Wind Speed 22 mph    
Max Gust Speed 31 mph    
Visibility 10 miles    
Events      
Averages and records for this station are not official NWS values.
T = Trace of Precipitation, MM = Missing Value Source: NWS Daily Summary

Daily Weather History Graph

Daily Weather History Graph

Search for Another Location

Airport:

Trip Planner

Search our weather history database for the weather conditions in past years. The results will help you decide how hot, cold, wet, or windy it might be!

Date:

Astronomy

May. 27, 2013 Rise Set
Actual Time 6:27 AM CDT 8:35 PM CDT
Civil Twilight 5:59 AM CDT 9:03 PM CDT
Nautical Twilight 5:25 AM CDT 9:37 PM CDT
Astronomical Twilight 4:48 AM CDT 10:14 PM CDT
Moon 11:19 PM CDT (5/27) 9:04 AM CDT (5/27)
Length of Visible Light 15h 03m
Length of Day
14h 07m
Waning Gibbous, 91% of the Moon is Illuminated
May 27
Waning Gibbous
May 31
Last Quarter
Jun 8
New
Jun 16
First Quarter
Jun 23
Full

Hourly Weather History & Observations

Time (CDT) Temp. Heat Index Dew Point Humidity Pressure Visibility Wind Dir Wind Speed Gust Speed Precip Events Conditions
12:15 AM 76.6 °F - 69.1 °F 77% 29.94 in 10.0 mi SSE 10.4 mph 16.1 mph N/A   Clear
12:35 AM 76.5 °F - 68.9 °F 77% 29.94 in 10.0 mi SSE 10.4 mph 17.3 mph N/A   Clear
12:55 AM 76.1 °F - 68.5 °F 77% 29.93 in 10.0 mi SSE 10.4 mph - N/A   Clear
1:15 AM 75.6 °F - 68.2 °F 78% 29.93 in 10.0 mi SSE 10.4 mph 16.1 mph N/A   Clear
1:35 AM 75.2 °F - 68.0 °F 78% 29.93 in 10.0 mi SSE 10.4 mph - N/A   Clear
1:55 AM 74.8 °F - 68.0 °F 79% 29.92 in 10.0 mi SSE 11.5 mph - N/A   Clear
2:15 AM 74.5 °F - 68.0 °F 80% 29.92 in 10.0 mi SSE 9.2 mph 17.3 mph N/A   Clear
2:35 AM 74.1 °F - 67.6 °F 80% 29.92 in 10.0 mi SSE 9.2 mph - N/A   Clear
2:55 AM 73.6 °F - 67.1 °F 80% 29.91 in 10.0 mi SSE 9.2 mph 16.1 mph N/A   Clear
3:15 AM 73.4 °F - 66.7 °F 80% 29.90 in 10.0 mi SSE 9.2 mph 16.1 mph N/A   Clear
3:35 AM 73.0 °F - 66.4 °F 80% 29.90 in 10.0 mi SSE 8.1 mph - N/A   Clear
3:55 AM 72.5 °F - 66.2 °F 81% 29.89 in 10.0 mi SSE 9.2 mph - N/A   Clear
4:15 AM 72.1 °F - 65.8 °F 80% 29.88 in 10.0 mi SSE 11.5 mph - N/A   Clear
4:35 AM 72.0 °F - 65.7 °F 80% 29.88 in 10.0 mi SSE 9.2 mph - N/A   Clear
4:55 AM 71.6 °F - 65.7 °F 81% 29.89 in 10.0 mi SSE 9.2 mph 16.1 mph N/A   Clear
5:15 AM 71.1 °F - 65.5 °F 82% 29.89 in 10.0 mi SSE 9.2 mph - N/A   Clear
5:35 AM 70.9 °F - 65.5 °F 83% 29.89 in 10.0 mi South 5.8 mph - N/A   Clear
5:55 AM 70.7 °F - 65.3 °F 83% 29.89 in 10.0 mi South 8.1 mph 17.3 mph N/A   Clear
6:15 AM 70.3 °F - 65.3 °F 84% 29.89 in 10.0 mi South 9.2 mph - N/A   Clear
6:35 AM 70.7 °F - 65.1 °F 82% 29.89 in 10.0 mi South 10.4 mph 16.1 mph N/A   Mostly Cloudy
6:55 AM 70.9 °F - 65.3 °F 82% 29.90 in 10.0 mi South 12.7 mph 18.4 mph N/A   Overcast
7:15 AM 71.1 °F - 65.1 °F 81% 29.90 in 10.0 mi South 11.5 mph 16.1 mph N/A   Overcast
7:35 AM 71.6 °F - 65.3 °F 80% 29.91 in 10.0 mi South 6.9 mph - N/A   Overcast
7:55 AM 72.3 °F - 65.7 °F 79% 29.91 in 10.0 mi SSE 6.9 mph - N/A   Overcast
8:15 AM 72.9 °F - 66.0 °F 79% 29.91 in 10.0 mi SSE 9.2 mph - N/A   Overcast
8:35 AM 73.8 °F - 66.2 °F 77% 29.92 in 10.0 mi SSE 11.5 mph - N/A   Overcast
8:55 AM 74.3 °F - 66.4 °F 76% 29.92 in 10.0 mi SSE 10.4 mph 16.1 mph N/A   Overcast
9:15 AM 74.8 °F - 66.4 °F 75% 29.91 in 10.0 mi SSE 12.7 mph - N/A   Overcast
9:35 AM 76.1 °F - 66.9 °F 73% 29.92 in 10.0 mi SSE 11.5 mph 17.3 mph N/A   Overcast
9:55 AM 76.3 °F - 66.9 °F 73% 29.91 in 10.0 mi SSE 12.7 mph 17.3 mph N/A   Mostly Cloudy
10:15 AM 77.9 °F - 67.1 °F 69% 29.90 in 10.0 mi SSE 15.0 mph 23.0 mph N/A   Scattered Clouds
10:35 AM 79.3 °F - 67.5 °F 67% 29.89 in 10.0 mi SSE 15.0 mph 19.6 mph N/A   Scattered Clouds
11:15 AM 80.2 °F 82.6 °F 67.1 °F 64% 29.89 in 10.0 mi South 12.7 mph 21.9 mph N/A   Overcast
11:35 AM 79.7 °F - 66.6 °F 64% 29.89 in 10.0 mi SSE 11.5 mph 19.6 mph N/A   Overcast
11:55 AM 81.1 °F 83.5 °F 66.9 °F 62% 29.89 in 10.0 mi South 13.8 mph 19.6 mph N/A   Overcast
12:15 PM 81.5 °F 83.7 °F 66.6 °F 60% 29.89 in 10.0 mi SSE 16.1 mph 24.2 mph N/A   Overcast
12:35 PM 82.0 °F 84.5 °F 67.1 °F 60% 29.89 in 10.0 mi SSE 11.5 mph 21.9 mph N/A   Overcast
12:55 PM 82.8 °F 85.3 °F 67.1 °F 59% 29.88 in 10.0 mi SSE 15.0 mph 25.3 mph N/A   Overcast
1:15 PM 83.1 °F 85.7 °F 66.7 °F 58% 29.87 in 10.0 mi SSE 13.8 mph 24.2 mph N/A   Overcast
1:35 PM 83.3 °F 85.7 °F 66.7 °F 57% 29.87 in 10.0 mi SSE 16.1 mph 26.5 mph N/A   Mostly Cloudy
1:55 PM 83.7 °F 86.0 °F 66.4 °F 56% 29.86 in 10.0 mi SSE 12.7 mph 21.9 mph N/A   Overcast
2:15 PM 83.7 °F 85.8 °F 66.0 °F 55% 29.85 in 10.0 mi South 16.1 mph 24.2 mph N/A   Overcast
2:35 PM 84.7 °F 87.1 °F 66.4 °F 54% 29.84 in 10.0 mi SSE 19.6 mph 26.5 mph N/A   Mostly Cloudy
2:55 PM 85.5 °F 87.6 °F 66.0 °F 52% 29.83 in 10.0 mi SE 16.1 mph 26.5 mph N/A   Mostly Cloudy
3:15 PM 85.1 °F 87.4 °F 66.2 °F 53% 29.83 in 10.0 mi South 18.4 mph 25.3 mph N/A   Mostly Cloudy
3:35 PM 86.0 °F 88.2 °F 66.0 °F 51% 29.82 in 10.0 mi SSE 16.1 mph 27.6 mph N/A   Mostly Cloudy
3:55 PM 85.8 °F 88.2 °F 66.2 °F 52% 29.81 in 10.0 mi SSE 17.3 mph 26.5 mph N/A   Mostly Cloudy
4:15 PM 86.0 °F 88.5 °F 66.4 °F 52% 29.80 in 10.0 mi SSE 13.8 mph 28.8 mph N/A   Scattered Clouds
4:35 PM 86.7 °F 89.3 °F 66.4 °F 51% 29.79 in 10.0 mi SSE 16.1 mph 29.9 mph N/A   Scattered Clouds
4:55 PM 85.6 °F 87.9 °F 66.2 °F 52% 29.79 in 10.0 mi SSE 19.6 mph 29.9 mph N/A   Scattered Clouds
5:15 PM 85.3 °F 87.6 °F 66.4 °F 53% 29.78 in 10.0 mi South 21.9 mph 29.9 mph N/A   Scattered Clouds
5:35 PM 85.8 °F 88.2 °F 66.2 °F 52% 29.76 in 10.0 mi SSE 15.0 mph 31.1 mph N/A   Scattered Clouds
5:55 PM 84.4 °F 86.8 °F 66.4 °F 55% 29.75 in 10.0 mi SSE 20.7 mph 31.1 mph N/A   Scattered Clouds
6:15 PM 83.5 °F 86.0 °F 66.6 °F 57% 29.75 in 10.0 mi SSE 18.4 mph 28.8 mph N/A   Scattered Clouds
6:35 PM 83.3 °F 85.7 °F 66.6 °F 57% 29.75 in 10.0 mi SSE 16.1 mph 26.5 mph N/A   Scattered Clouds
6:55 PM 82.8 °F 84.9 °F 66.2 °F 57% 29.76 in 10.0 mi South 12.7 mph 25.3 mph N/A   Clear
7:15 PM 82.6 °F 84.9 °F 66.2 °F 58% 29.76 in 10.0 mi SSE 17.3 mph 26.5 mph N/A   Clear
7:35 PM 82.6 °F 84.9 °F 66.2 °F 58% 29.76 in 10.0 mi SSE 15.0 mph 26.5 mph N/A   Clear
7:55 PM 82.4 °F 84.6 °F 66.2 °F 58% 29.77 in 10.0 mi SSE 15.0 mph 20.7 mph N/A   Clear
8:15 PM 82.4 °F 84.6 °F 66.2 °F 58% 29.77 in 10.0 mi South 16.1 mph 24.2 mph N/A   Clear
8:35 PM 81.9 °F 84.1 °F 66.2 °F 59% 29.77 in 10.0 mi SSE 10.4 mph 21.9 mph N/A   Clear
8:55 PM 81.5 °F 83.7 °F 66.2 °F 60% 29.77 in 10.0 mi SE 9.2 mph - N/A   Clear
9:15 PM 80.8 °F 82.9 °F 66.4 °F 61% 29.77 in 10.0 mi SSE 9.2 mph - N/A   Clear
9:35 PM 80.2 °F 82.5 °F 66.6 °F 63% 29.77 in 10.0 mi SSE 6.9 mph - N/A   Clear
9:55 PM 80.1 °F 82.3 °F 67.1 °F 64% 29.78 in 10.0 mi SE 6.9 mph - N/A   Clear
10:15 PM 79.9 °F - 67.3 °F 65% 29.80 in 10.0 mi SE 6.9 mph - N/A   Clear
10:35 PM 79.3 °F - 67.5 °F 67% 29.81 in 10.0 mi SE 4.6 mph - N/A   Clear
10:55 PM 79.0 °F - 67.5 °F 68% 29.82 in 10.0 mi ESE 3.5 mph - N/A   Clear
11:15 PM 78.4 °F - 67.5 °F 69% 29.81 in 10.0 mi ESE 8.1 mph - N/A   Clear
11:35 PM 78.8 °F - 67.6 °F 68% 29.81 in 10.0 mi SE 6.9 mph - N/A   Clear
11:55 PM 78.1 °F - 67.8 °F 71% 29.81 in 10.0 mi SE 6.9 mph - N/A   Clear